Showing default

IRIDIUM 149, 43250

Orbit data source: Space-Track

IRIDIUM 149, 43250 is a payload satellite owned by Iridium (US) in LEO that was launched on Fri, 30 Mar 2018 UTC via an FALCON 9 launch vehicle from the Air Force Western Test Range (AFWTR). Payloads include a variety of satellites, spacecraft, and rockets equipped with specific instruments for various scientific and technological missions. These include communications satellites like Starlink; space stations such as the ISS; scientific satellites like the Hubble; Earth observation satellites from companies like Planet Labs, Umbra, and HawkEye 360; GPS; miniature CubeSats for education and research; and military/defense satellites.

Loading next visibility...
IRIDIUM 149 details
Identifier
43250, 2018-030B
Orbit
LEO
Last TLE update8 hours ago
Origin
Flag of USIridium (US)
ManufacturerOATK SSG Gilbert
MissionOperational Commercial Communications
Bus & MotorELITEBUS, Unknown motor
Mass860 kg wet, 700 kg dry
Launch date (UTC)
2018-03-30 (7 years ago)
Launch vehicle
FALCON 9
Launch site
Air Force Western Test Range (AFWTR)
Object type
Payload
Rocket body
Debris
Shape & HBRTrap Box + 2 Pan, 9.4 m
Radar Cross Section14.423 m², Large (>1 m²)

Expand to show TLE details & history

TLE from 8 hours ago
0 IRIDIUM 149
1 43250U 18030B   24361.18212294 -.00000133  00000-0 -54423-4 0  9992
2 43250  86.3995 155.2846 0002023  97.9164 262.2261 14.34216580353040
Epoch: 2024-12-26T04:22Z
Definitive object data (Epoch: 2024-12-26T04:22:15.422Z)
Latitude-0.00004°
Longitude-5.44485°
Altitude780.918 km
Speed7.463 km/s
True Right ascension10h 21m 08s
True Declination0° 00' 00"
Sunlit
Object was in full shadow at TLE epoch
Visualization TLE readout
Latitude6.67099°
Longitude-5.17165°
Altitude780.104 km
Speed7.464 km/s
Apparent Right ascension07h 47m 28s
Apparent Declination-42° 54' 38"
Sunlit
Object is in full shadow
Visualization observer readout
Local Sidereal Time12:08:00
Azimuth222.713° SW
Elevation-11.577°
Doppler factor1
Orbital elements
Apogee altitude776.082 km
Perigee altitude773.188 km
Semi-major axis7,152.772 km
Eccentricity0.0002023
Inclination86.3995°
RAAN155.2846°
Arg. of periapsis97.9164°
True anomaly262.20313°
Mean anomaly262.2261°
Eccentric anomaly262.21462°
Mean motion3.58783 °/min
BSTAR-0.000054423
Orbital period100.34 mins
Loading maneuver chart data...
Loading historical data...
Loading historical data...
Loading historical data...
Loading historical data...
Loading historical data...
Loading historical data...
Loading historical data...

IRIDIUM 149 Visibility forecast

Observer location: undefined°, undefined

Span
Click to sort rows by Start time (UTC) header in descending order
Start Az.
Max El. time (UTC)
Max El. Az.
Max El.
End time (UTC)
End Az.
8 mins2024-12-26 21:41:26.676Z24.524° NE2024-12-26 21:45:26.676Z76.047° E22.689°2024-12-26 21:49:26.676Z130.636° SE
7 mins2024-12-26 23:23:26.676Z327.411° NNW2024-12-26 23:26:26.676Z272.591° WNW29.973°2024-12-26 23:30:26.676Z213.715° SW
8 mins2024-12-27 10:38:26.676Z156.534° SSE2024-12-27 10:41:26.676Z103.031° ESE38.064°2024-12-27 10:46:26.676Z13.647° NNE
4 mins2024-12-27 12:21:26.676Z265.249° W2024-12-27 12:22:26.676Z278.821° WNW16.153°2024-12-27 12:25:26.676Z317.695° NNW
|